Location: Newark
(39.0450°N, 122.9183°W)
Time: 03:15:15
(UTC+00:00)

ISS - Visible Passes

Search period start: 23 July 2019 00:00
Search period end: 02 August 2019 00:00
Orbit: 409 x 418 km, 51.6° (Epoch: 23 July)

Date Brightness Start Highest point End Pass type
(mag) Time Alt. Az. Time Alt. Az. Time Alt. Az.
23 Jul -0.7 04:41:51 10° WNW 04:44:01 16° NNW 04:46:09 10° NNE visible
23 Jul -0.4 07:57:21 10° NNW 07:57:59 13° NNW 07:57:59 13° NNW visible
24 Jul -0.6 07:08:21 10° NNW 07:10:00 13° NNE 07:10:00 13° NNE visible
25 Jul -0.5 04:41:30 10° NNW 04:42:32 11° N 04:43:34 10° N visible
25 Jul -0.6 06:19:25 10° N 06:20:27 11° N 06:21:28 10° NNE visible
26 Jul -0.7 07:05:51 10° NNW 07:07:01 16° N 07:07:01 16° N visible
27 Jul -1.1 06:16:47 10° NNW 06:18:56 16° NNE 06:19:11 16° NNE visible
28 Jul -0.9 05:27:46 10° NNW 05:29:19 13° NNE 05:30:52 10° NE visible
28 Jul -0.7 07:03:28 10° NW 07:04:11 15° NW 07:04:11 15° NW visible
29 Jul -0.8 04:38:49 10° N 04:39:39 11° N 04:40:28 10° NNE visible
29 Jul -1.6 06:14:17 10° NNW 06:16:24 24° N 06:16:24 24° N visible
30 Jul -1.6 05:25:10 10° NNW 05:27:41 19° NNE 05:28:39 17° NE visible
30 Jul -0.5 07:01:19 10° WNW 07:01:28 11° WNW 07:01:28 11° WNW visible
31 Jul -1.2 04:36:04 10° NNW 04:38:04 15° NNE 04:40:03 10° NE visible
31 Jul -1.8 06:11:56 10° NW 06:13:44 29° NW 06:13:44 29° NW visible
01 Aug -2.8 05:22:39 10° NW 05:25:49 38° NNE 05:26:02 37° NE visible
